| time (UTC) | temp C | wind direction | speed KPH | gust KPH | rain 1hr cm | rain 24hr cm | rain mn cm | humidity % | barometer mb |
| 20260510000311 | 22 | 227 | 0.0 | 1.6 | 0.00 | 0.00 | 0.00 | 86 | 1025.0 |
| 20260509235807 | 22 | 228 | 1.6 | 1.6 | 0.00 | 0.00 | 0.00 | 86 | 1025.1 |
| 20260509235306 | 22 | 227 | 0.0 | 0.0 | 0.00 | 0.00 | 0.00 | 86 | 1025.2 |
| 20260509234759 | 22 | 229 | 0.0 | 1.6 | 0.00 | 0.00 | 0.00 | 86 | 1025.4 |
| 20260509234256 | 22 | 234 | 0.0 | 1.6 | 0.00 | 0.00 | 0.00 | 85 | 1025.1 |
| 20260509233754 | 22 | 230 | 0.0 | 3.2 | 0.00 | 0.00 | 0.00 | 86 | 1025.2 |
| 20260509233251 | 22 | 233 | 0.0 | 1.6 | 0.00 | 0.00 | 0.00 | 86 | 1025.2 |
| 20260509232747 | 22 | 232 | 0.0 | 1.6 | 0.00 | 0.00 | 0.00 | 86 | 1025.0 |
| 20260509232245 | 21 | 233 | 1.6 | 3.2 | 0.00 | 0.00 | 0.00 | 86 | 1025.1 |
| 20260509231741 | 22 | 232 | 1.6 | 4.8 | 0.00 | 0.00 | 0.00 | 86 | 1025.0 |
| 20260509231238 | 22 | 244 | 1.6 | 3.2 | 0.00 | 0.00 | 0.00 | 86 | 1024.9 |
| 20260509230735 | 21 | 227 | 3.2 | 4.8 | 0.00 | 0.00 | 0.00 | 86 | 1024.9 |
| 20260509230232 | 21 | 216 | 4.8 | 8.0 | 0.00 | 0.00 | 0.00 | 86 | 1024.5 |
| 20260509225727 | 21 | 235 | 1.6 | 4.8 | 0.00 | 0.00 | 0.00 | 86 | 1024.5 |
| 20260509225224 | 21 | 240 | 1.6 | 4.8 | 0.00 | 0.00 | 0.00 | 87 | 1024.6 |
| 20260509224719 | 21 | 232 | 0.0 | 3.2 | 0.00 | 0.00 | 0.00 | 87 | 1024.5 |
| 20260509224216 | 22 | 231 | 1.6 | 4.8 | 0.00 | 0.00 | 0.00 | 86 | 1024.3 |
| 20260509223713 | 22 | 236 | 0.0 | 3.2 | 0.00 | 0.00 | 0.00 | 85 | 1024.1 |
| 20260509223210 | 22 | 238 | 0.0 | 4.8 | 0.00 | 0.00 | 0.00 | 85 | 1024.1 |
| 20260509222707 | 22 | 240 | 4.8 | 4.8 | 0.00 | 0.00 | 0.00 | 84 | 1024.2 |
| 20260509222203 | 22 | 233 | 1.6 | 3.2 | 0.00 | 0.00 | 0.00 | 84 | 1024.0 |
| 20260509221659 | 22 | 239 | 3.2 | 8.0 | 0.00 | 0.00 | 0.00 | 84 | 1024.0 |
| 20260509221155 | 22 | 243 | 1.6 | 8.0 | 0.00 | 0.00 | 0.00 | 84 | 1023.8 |
| 20260509220651 | 22 | 229 | 1.6 | 3.2 | 0.00 | 0.00 | 0.00 | 84 | 1023.7 |
| 20260509220148 | 22 | 238 | 1.6 | 3.2 | 0.00 | 0.00 | 0.00 | 84 | 1023.5 |
| 20260509215643 | 22 | 232 | 1.6 | 4.8 | 0.00 | 0.00 | 0.00 | 84 | 1023.6 |
| 20260509215140 | 22 | 233 | 0.0 | 1.6 | 0.00 | 0.00 | 0.00 | 82 | 1023.8 |
| 20260509214637 | 23 | 233 | 0.0 | 1.6 | 0.00 | 0.00 | 0.00 | 80 | 1023.5 |
| 20260509214134 | 23 | 236 | 0.0 | 3.2 | 0.00 | 0.00 | 0.00 | 77 | 1023.3 |
| 20260509213631 | 24 | 238 | 3.2 | 4.8 | 0.00 | 0.00 | 0.00 | 74 | 1023.3 |
| 20260509213121 | 24 | 234 | 0.0 | 0.0 | 0.00 | 0.00 | 0.00 | 69 | 1023.0 |
| 20260509212619 | 24 | 235 | 0.0 | 0.0 | 0.00 | 0.00 | 0.00 | 68 | 1023.2 |
| 20260509212116 | 24 | 235 | 0.0 | 0.0 | 0.00 | 0.00 | 0.00 | 68 | 1023.1 |
| 20260509211612 | 25 | 236 | 0.0 | 0.0 | 0.00 | 0.00 | 0.00 | 67 | 1023.2 |
| 20260509211109 | 25 | 236 | 0.0 | 0.0 | 0.00 | 0.00 | 0.00 | 67 | 1023.3 |
| 20260509210605 | 25 | 236 | 0.0 | 0.0 | 0.00 | 0.00 | 0.00 | 66 | 1023.3 |
| 20260509205602 | 25 | 236 | 0.0 | 0.0 | 0.00 | 0.00 | 0.00 | 65 | 1023.3 |
| 20260509205057 | 25 | 236 | 0.0 | 0.0 | 0.00 | 0.00 | 0.00 | 64 | 1023.2 |
| 20260509204554 | 25 | 236 | 0.0 | 0.0 | 0.00 | 0.00 | 0.00 | 64 | 1023.2 |
| 20260509204050 | 25 | 237 | 0.0 | 0.0 | 0.00 | 0.00 | 0.00 | 63 | 1023.1 |
| 20260509203546 | 26 | 238 | 0.0 | 0.0 | 0.00 | 0.00 | 0.00 | 62 | 1023.1 |
| 20260509203044 | 26 | 237 | 0.0 | 0.0 | 0.00 | 0.00 | 0.00 | 62 | 1023.0 |
| 20260509202538 | 26 | 237 | 0.0 | 0.0 | 0.00 | 0.00 | 0.00 | 61 | 1022.8 |
| 20260509202034 | 26 | 239 | 0.0 | 0.0 | 0.00 | 0.00 | 0.00 | 61 | 1022.7 |
| 20260509201529 | 26 | 239 | 0.0 | 0.0 | 0.00 | 0.00 | 0.00 | 60 | 1022.9 |
| 20260509201027 | 26 | 240 | 0.0 | 3.2 | 0.00 | 0.00 | 0.00 | 59 | 1022.6 |
| 20260509200521 | 27 | 235 | 0.0 | 0.0 | 0.00 | 0.00 | 0.00 | 58 | 1022.5 |
| 20260509200019 | 27 | 246 | 0.0 | 1.6 | 0.00 | 0.00 | 0.00 | 58 | 1022.6 |
| 20260509195514 | 27 | 238 | 1.6 | 8.0 | 0.00 | 0.00 | 0.00 | 58 | 1022.6 |
| 20260509195014 | 27 | 241 | 0.0 | 1.6 | 0.00 | 0.00 | 0.00 | 58 | 1022.4 |
| 20260509194509 | 27 | 227 | 1.6 | 3.2 | 0.00 | 0.00 | 0.00 | 57 | 1022.4 |
| 20260509194007 | 27 | 239 | 0.0 | 0.0 | 0.00 | 0.00 | 0.00 | 57 | 1022.4 |
| 20260509193507 | 27 | 241 | 1.6 | 4.8 | 0.00 | 0.00 | 0.00 | 56 | 1022.3 |
| 20260509193004 | 27 | 232 | 1.6 | 3.2 | 0.00 | 0.00 | 0.00 | 56 | 1022.2 |
| 20260509192500 | 27 | 239 | 0.0 | 1.6 | 0.00 | 0.00 | 0.00 | 56 | 1022.3 |
| 20260509191955 | 27 | 239 | 0.0 | 3.2 | 0.00 | 0.00 | 0.00 | 56 | 1022.2 |
| 20260509191450 | 27 | 240 | 1.6 | 3.2 | 0.00 | 0.00 | 0.00 | 55 | 1022.2 |
| 20260509190946 | 27 | 240 | 1.6 | 3.2 | 0.00 | 0.00 | 0.00 | 56 | 1022.1 |
| 20260509190444 | 27 | 227 | 3.2 | 3.2 | 0.00 | 0.00 | 0.00 | 55 | 1022.1 |
| 20260509185941 | 27 | 241 | 1.6 | 8.0 | 0.00 | 0.00 | 0.00 | 55 | 1022.2 |
| 20260509185438 | 27 | 238 | 4.8 | 9.7 | 0.00 | 0.00 | 0.00 | 56 | 1022.1 |
| 20260509184934 | 27 | 246 | 1.6 | 1.6 | 0.00 | 0.00 | 0.00 | 57 | 1022.2 |
| 20260509184432 | 27 | 224 | 1.6 | 3.2 | 0.00 | 0.00 | 0.00 | 57 | 1022.2 |
| 20260509183928 | 27 | 235 | 0.0 | 3.2 | 0.00 | 0.00 | 0.00 | 57 | 1022.2 |
| 20260509183423 | 28 | 228 | 0.0 | 0.0 | 0.00 | 0.00 | 0.00 | 57 | 1022.3 |
| 20260509182920 | 28 | 235 | 1.6 | 8.0 | 0.00 | 0.00 | 0.00 | 57 | 1022.1 |
| 20260509182416 | 28 | 230 | 1.6 | 1.6 | 0.00 | 0.00 | 0.00 | 57 | 1022.2 |
| 20260509181914 | 28 | 241 | 1.6 | 4.8 | 0.00 | 0.00 | 0.00 | 57 | 1022.2 |
| 20260509181412 | 28 | 238 | 0.0 | 8.0 | 0.00 | 0.00 | 0.00 | 57 | 1022.5 |
| 20260509180908 | 28 | 249 | 1.6 | 3.2 | 0.00 | 0.00 | 0.00 | 57 | 1022.4 |
| 20260509180403 | 28 | 244 | 3.2 | 4.8 | 0.00 | 0.00 | 0.00 | 56 | 1022.5 |
| 20260509175901 | 28 | 248 | 1.6 | 3.2 | 0.00 | 0.00 | 0.00 | 56 | 1022.4 |
| 20260509175357 | 28 | 236 | 1.6 | 3.2 | 0.00 | 0.00 | 0.00 | 57 | 1022.3 |
| 20260509174853 | 28 | 242 | 0.0 | 1.6 | 0.00 | 0.00 | 0.00 | 57 | 1022.4 |
| 20260509174349 | 27 | 232 | 0.0 | 3.2 | 0.00 | 0.00 | 0.00 | 58 | 1022.5 |
| 20260509173845 | 28 | 240 | 3.2 | 4.8 | 0.00 | 0.00 | 0.00 | 57 | 1022.5 |
| 20260509173340 | 28 | 232 | 0.0 | 1.6 | 0.00 | 0.00 | 0.00 | 57 | 1022.7 |
| 20260509172837 | 27 | 242 | 0.0 | 1.6 | 0.00 | 0.00 | 0.00 | 58 | 1022.5 |
| 20260509172334 | 28 | 236 | 0.0 | 3.2 | 0.00 | 0.00 | 0.00 | 57 | 1022.6 |
| 20260509171830 | 28 | 237 | 0.0 | 1.6 | 0.00 | 0.00 | 0.00 | 57 | 1022.7 |
| 20260509171325 | 27 | 236 | 1.6 | 1.6 | 0.00 | 0.00 | 0.00 | 57 | 1022.7 |
| 20260509170822 | 27 | 237 | 1.6 | 3.2 | 0.00 | 0.00 | 0.00 | 58 | 1022.7 |
| 20260509170318 | 27 | 241 | 1.6 | 1.6 | 0.00 | 0.00 | 0.00 | 57 | 1022.7 |
| 20260509165818 | 28 | 208 | 3.2 | 8.0 | 0.00 | 0.00 | 0.00 | 57 | 1022.7 |
| 20260509165313 | 28 | 237 | 3.2 | 3.2 | 0.00 | 0.00 | 0.00 | 56 | 1022.9 |
| 20260509164809 | 27 | 239 | 1.6 | 1.6 | 0.00 | 0.00 | 0.00 | 57 | 1022.8 |
| 20260509164305 | 28 | 242 | 0.0 | 3.2 | 0.00 | 0.00 | 0.00 | 56 | 1023.0 |
| 20260509163802 | 28 | 240 | 3.2 | 4.8 | 0.00 | 0.00 | 0.00 | 55 | 1022.9 |
| 20260509163258 | 28 | 242 | 1.6 | 3.2 | 0.00 | 0.00 | 0.00 | 55 | 1022.8 |
| 20260509162757 | 28 | 235 | 3.2 | 4.8 | 0.00 | 0.00 | 0.00 | 56 | 1023.0 |
| 20260509162251 | 28 | 238 | 1.6 | 3.2 | 0.00 | 0.00 | 0.00 | 56 | 1023.0 |
| 20260509161747 | 28 | 240 | 1.6 | 3.2 | 0.00 | 0.00 | 0.00 | 56 | 1023.0 |
| 20260509161243 | 27 | 238 | 0.0 | 1.6 | 0.00 | 0.00 | 0.00 | 57 | 1023.0 |
| 20260509160738 | 27 | 237 | 1.6 | 4.8 | 0.00 | 0.00 | 0.00 | 57 | 1023.2 |
| 20260509160235 | 27 | 239 | 3.2 | 9.7 | 0.00 | 0.00 | 0.00 | 57 | 1023.2 |
| 20260509155730 | 28 | 226 | 3.2 | 4.8 | 0.00 | 0.00 | 0.00 | 56 | 1023.2 |
| 20260509155227 | 28 | 240 | 1.6 | 4.8 | 0.00 | 0.00 | 0.00 | 56 | 1023.2 |
| 20260509154723 | 28 | 235 | 1.6 | 1.6 | 0.00 | 0.00 | 0.00 | 56 | 1023.1 |
| 20260509154220 | 28 | 241 | 1.6 | 3.2 | 0.00 | 0.00 | 0.00 | 56 | 1023.2 |
| 20260509153717 | 28 | 237 | 3.2 | 3.2 | 0.00 | 0.00 | 0.00 | 55 | 1023.6 |
| 20260509153213 | 30 | 243 | 0.0 | 3.2 | 0.00 | 0.00 | 0.00 | 53 | 1023.2 |
| 20260509152709 | 29 | 234 | 0.0 | 1.6 | 0.00 | 0.00 | 0.00 | 53 | 1023.5 |
| 20260509152207 | 28 | 236 | 0.0 | 3.2 | 0.00 | 0.00 | 0.00 | 55 | 1023.2 |
| 20260509151704 | 28 | 235 | 0.0 | 3.2 | 0.00 | 0.00 | 0.00 | 57 | 1023.5 |
| 20260509151201 | 28 | 241 | 0.0 | 1.6 | 0.00 | 0.00 | 0.00 | 58 | 1023.7 |
| 20260509150658 | 28 | 230 | 1.6 | 3.2 | 0.00 | 0.00 | 0.00 | 57 | 1023.8 |
| 20260509150156 | 28 | 239 | 0.0 | 1.6 | 0.00 | 0.00 | 0.00 | 57 | 1023.8 |
| 20260509145652 | 28 | 235 | 0.0 | 0.0 | 0.00 | 0.00 | 0.00 | 58 | 1023.9 |
| 20260509145147 | 27 | 239 | 0.0 | 1.6 | 0.00 | 0.00 | 0.00 | 58 | 1024.1 |
| 20260509144644 | 27 | 266 | 1.6 | 3.2 | 0.00 | 0.00 | 0.00 | 59 | 1024.3 |
| 20260509144142 | 27 | 239 | 1.6 | 1.6 | 0.00 | 0.00 | 0.00 | 59 | 1024.3 |
| 20260509143638 | 27 | 240 | 3.2 | 4.8 | 0.00 | 0.00 | 0.00 | 59 | 1024.4 |
| 20260509143136 | 27 | 240 | 3.2 | 3.2 | 0.00 | 0.00 | 0.00 | 59 | 1024.4 |
| 20260509142631 | 27 | 253 | 4.8 | 9.7 | 0.00 | 0.00 | 0.00 | 58 | 1024.5 |
| 20260509142128 | 28 | 238 | 1.6 | 1.6 | 0.00 | 0.00 | 0.00 | 58 | 1024.5 |
| 20260509141624 | 28 | 234 | 0.0 | 1.6 | 0.00 | 0.00 | 0.00 | 58 | 1024.2 |
| 20260509141120 | 27 | 234 | 0.0 | 1.6 | 0.00 | 0.00 | 0.00 | 59 | 1024.6 |
| 20260509140618 | 26 | 243 | 1.6 | 3.2 | 0.00 | 0.00 | 0.00 | 61 | 1024.4 |
| 20260509140116 | 26 | 235 | 3.2 | 4.8 | 0.00 | 0.00 | 0.00 | 61 | 1024.5 |
| 20260509135612 | 26 | 237 | 1.6 | 1.6 | 0.00 | 0.00 | 0.00 | 62 | 1024.7 |
| 20260509135111 | 26 | 240 | 1.6 | 1.6 | 0.00 | 0.00 | 0.00 | 62 | 1024.5 |
| 20260509134607 | 26 | 238 | 1.6 | 3.2 | 0.00 | 0.00 | 0.00 | 62 | 1024.6 |
| 20260509134104 | 26 | 237 | 0.0 | 1.6 | 0.00 | 0.00 | 0.00 | 63 | 1024.6 |
| 20260509133601 | 25 | 236 | 0.0 | 1.6 | 0.00 | 0.00 | 0.00 | 64 | 1024.7 |
| 20260509133059 | 25 | 236 | 0.0 | 1.6 | 0.00 | 0.00 | 0.00 | 64 | 1024.9 |
| 20260509132557 | 25 | 231 | 1.6 | 1.6 | 0.00 | 0.00 | 0.00 | 64 | 1024.6 |
| 20260509132055 | 25 | 235 | 0.0 | 0.0 | 0.00 | 0.00 | 0.00 | 65 | 1025.0 |
| 20260509131550 | 25 | 235 | 0.0 | 1.6 | 0.00 | 0.00 | 0.00 | 66 | 1025.0 |
| 20260509131048 | 25 | 234 | 0.0 | 1.6 | 0.00 | 0.00 | 0.00 | 65 | 1025.1 |
| 20260509130543 | 25 | 243 | 0.0 | 1.6 | 0.00 | 0.00 | 0.00 | 65 | 1025.0 |
| 20260509130040 | 25 | 241 | 0.0 | 1.6 | 0.00 | 0.00 | 0.00 | 66 | 1025.0 |
| 20260509125537 | 25 | 240 | 0.0 | 1.6 | 0.00 | 0.00 | 0.00 | 66 | 1025.1 |
| 20260509125033 | 24 | 236 | 0.0 | 3.2 | 0.00 | 0.00 | 0.00 | 67 | 1025.1 |
| 20260509124530 | 24 | 241 | 1.6 | 1.6 | 0.00 | 0.00 | 0.00 | 67 | 1024.9 |
| 20260509124027 | 24 | 241 | 0.0 | 3.2 | 0.00 | 0.00 | 0.00 | 67 | 1024.9 |
| 20260509123525 | 24 | 234 | 1.6 | 1.6 | 0.00 | 0.00 | 0.00 | 67 | 1024.6 |
| 20260509123021 | 23 | 239 | 1.6 | 3.2 | 0.00 | 0.00 | 0.00 | 67 | 1024.5 |
| 20260509122518 | 23 | 236 | 1.6 | 1.6 | 0.00 | 0.00 | 0.00 | 68 | 1024.4 |
| 20260509122015 | 23 | 239 | 0.0 | 3.2 | 0.00 | 0.00 | 0.00 | 68 | 1024.4 |
| 20260509121511 | 23 | 239 | 0.0 | 1.6 | 0.00 | 0.00 | 0.00 | 68 | 1024.4 |
| 20260509121009 | 23 | 240 | 0.0 | 0.0 | 0.00 | 0.00 | 0.00 | 68 | 1024.3 |
| 20260509120507 | 23 | 240 | 0.0 | 1.6 | 0.00 | 0.00 | 0.00 | 68 | 1024.3 |
| 20260509120005 | 23 | 239 | 0.0 | 4.8 | 0.00 | 0.00 | 0.00 | 69 | 1024.4 |
| 20260509115502 | 23 | 242 | 0.0 | 0.0 | 0.00 | 0.00 | 0.00 | 69 | 1024.3 |
| 20260509114959 | 23 | 237 | 0.0 | 0.0 | 0.00 | 0.00 | 0.00 | 69 | 1024.2 |
| 20260509114457 | 23 | 241 | 0.0 | 0.0 | 0.00 | 0.00 | 0.00 | 68 | 1024.1 |
| 20260509113957 | 23 | 240 | 0.0 | 0.0 | 0.00 | 0.00 | 0.00 | 68 | 1024.0 |
| 20260509113453 | 23 | 243 | 0.0 | 1.6 | 0.00 | 0.00 | 0.00 | 68 | 1024.1 |
| 20260509112950 | 23 | 237 | 0.0 | 1.6 | 0.00 | 0.00 | 0.00 | 68 | 1024.0 |
| 20260509112448 | 23 | 238 | 0.0 | 0.0 | 0.00 | 0.00 | 0.00 | 69 | 1024.1 |
| 20260509111944 | 23 | 241 | 0.0 | 1.6 | 0.00 | 0.00 | 0.00 | 69 | 1023.9 |
| 20260509111442 | 22 | 240 | 0.0 | 1.6 | 0.00 | 0.00 | 0.00 | 70 | 1023.9 |
| 20260509110939 | 22 | 243 | 1.6 | 3.2 | 0.00 | 0.00 | 0.00 | 71 | 1023.7 |
| 20260509110435 | 22 | 237 | 0.0 | 0.0 | 0.00 | 0.00 | 0.00 | 71 | 1023.3 |
| 20260509105933 | 22 | 240 | 1.6 | 3.2 | 0.00 | 0.00 | 0.00 | 71 | 1023.5 |
| 20260509105431 | 22 | 236 | 0.0 | 1.6 | 0.00 | 0.00 | 0.00 | 72 | 1023.2 |
| 20260509104928 | 22 | 243 | 0.0 | 1.6 | 0.00 | 0.00 | 0.00 | 72 | 1023.0 |
| 20260509104425 | 22 | 237 | 0.0 | 0.0 | 0.00 | 0.00 | 0.00 | 72 | 1022.9 |
| 20260509103922 | 22 | 240 | 0.0 | 1.6 | 0.00 | 0.00 | 0.00 | 73 | 1022.9 |
| 20260509103419 | 21 | 236 | 1.6 | 3.2 | 0.00 | 0.00 | 0.00 | 73 | 1023.0 |
| 20260509102918 | 21 | 244 | 1.6 | 1.6 | 0.00 | 0.00 | 0.00 | 73 | 1023.0 |
| 20260509102415 | 21 | 240 | 1.6 | 3.2 | 0.00 | 0.00 | 0.00 | 73 | 1022.9 |
| 20260509101911 | 21 | 233 | 0.0 | 3.2 | 0.00 | 0.00 | 0.00 | 73 | 1023.0 |
| 20260509101407 | 21 | 238 | 1.6 | 3.2 | 0.00 | 0.00 | 0.00 | 73 | 1022.8 |
| 20260509100905 | 21 | 160 | 0.0 | 0.0 | 0.00 | 0.00 | 0.00 | 73 | 1022.7 |
| 20260509100401 | 21 | 160 | 0.0 | 1.6 | 0.00 | 0.00 | 0.00 | 73 | 1022.5 |
| 20260509095858 | 22 | 159 | 1.6 | 3.2 | 0.00 | 0.00 | 0.00 | 72 | 1022.3 |
| 20260509095356 | 22 | 158 | 0.0 | 1.6 | 0.00 | 0.00 | 0.00 | 71 | 1022.2 |
| 20260509094853 | 22 | 157 | 0.0 | 1.6 | 0.00 | 0.00 | 0.00 | 68 | 1021.8 |
| 20260509094349 | 23 | 157 | 0.0 | 0.0 | 0.00 | 0.00 | 0.00 | 66 | 1021.9 |
| 20260509093847 | 23 | 157 | 1.6 | 4.8 | 0.00 | 0.00 | 0.00 | 65 | 1021.7 |
| 20260509093344 | 23 | 157 | 3.2 | 4.8 | 0.00 | 0.00 | 0.00 | 65 | 1021.4 |
| 20260509092843 | 23 | 157 | 3.2 | 3.2 | 0.00 | 0.00 | 0.00 | 65 | 1021.5 |
| 20260509092340 | 23 | 157 | 0.0 | 8.0 | 0.00 | 0.00 | 0.00 | 66 | 1021.6 |
| 20260509091832 | 23 | 157 | 0.0 | 1.6 | 0.00 | 0.00 | 0.00 | 66 | 1021.4 |
| 20260509091329 | 23 | 157 | 0.0 | 0.0 | 0.00 | 0.00 | 0.00 | 66 | 1021.6 |
| 20260509090826 | 23 | 157 | 0.0 | 1.6 | 0.00 | 0.00 | 0.00 | 66 | 1021.4 |
| 20260509090323 | 23 | 157 | 1.6 | 1.6 | 0.00 | 0.00 | 0.00 | 67 | 1021.2 |
| 20260509085820 | 23 | 157 | 0.0 | 3.2 | 0.00 | 0.00 | 0.00 | 66 | 1021.1 |
| 20260509085318 | 23 | 157 | 0.0 | 1.6 | 0.00 | 0.00 | 0.00 | 67 | 1021.0 |
| 20260509084814 | 23 | 157 | 0.0 | 0.0 | 0.00 | 0.00 | 0.00 | 67 | 1021.0 |
| 20260509084312 | 23 | 157 | 1.6 | 3.2 | 0.00 | 0.00 | 0.00 | 67 | 1021.0 |
| 20260509083809 | 23 | 157 | 1.6 | 1.6 | 0.00 | 0.00 | 0.00 | 67 | 1021.0 |
| 20260509083306 | 23 | 157 | 0.0 | 0.0 | 0.00 | 0.00 | 0.00 | 67 | 1020.8 |
| 20260509082803 | 23 | 158 | 0.0 | 0.0 | 0.00 | 0.00 | 0.00 | 67 | 1020.8 |
| 20260509082259 | 23 | 158 | 1.6 | 3.2 | 0.00 | 0.00 | 0.00 | 66 | 1020.7 |
| 20260509081756 | 23 | 158 | 4.8 | 8.0 | 0.00 | 0.00 | 0.00 | 67 | 1020.8 |
| 20260509081254 | 23 | 158 | 0.0 | 3.2 | 0.00 | 0.00 | 0.00 | 67 | 1020.8 |
| 20260509080752 | 23 | 158 | 0.0 | 1.6 | 0.00 | 0.00 | 0.00 | 68 | 1020.9 |
| 20260509080249 | 23 | 158 | 0.0 | 1.6 | 0.00 | 0.00 | 0.00 | 67 | 1020.9 |
| 20260509075747 | 22 | 158 | 0.0 | 0.0 | 0.00 | 0.00 | 0.00 | 68 | 1020.8 |
| 20260509075244 | 22 | 158 | 1.6 | 1.6 | 0.00 | 0.00 | 0.00 | 69 | 1020.8 |
| 20260509074740 | 22 | 158 | 0.0 | 1.6 | 0.00 | 0.00 | 0.00 | 69 | 1020.9 |
| 20260509074238 | 22 | 158 | 3.2 | 3.2 | 0.00 | 0.00 | 0.00 | 68 | 1020.9 |
| 20260509073734 | 22 | 158 | 0.0 | 1.6 | 0.00 | 0.00 | 0.00 | 68 | 1020.9 |
| 20260509073231 | 22 | 158 | 0.0 | 0.0 | 0.00 | 0.00 | 0.00 | 69 | 1020.9 |
| 20260509072727 | 22 | 158 | 0.0 | 0.0 | 0.00 | 0.00 | 0.00 | 69 | 1020.9 |
| 20260509072224 | 22 | 158 | 0.0 | 0.0 | 0.00 | 0.00 | 0.00 | 69 | 1020.9 |
| 20260509071721 | 22 | 158 | 3.2 | 3.2 | 0.00 | 0.00 | 0.00 | 70 | 1020.9 |
| 20260509071218 | 22 | 158 | 0.0 | 0.0 | 0.00 | 0.00 | 0.00 | 70 | 1020.9 |
| 20260509070715 | 22 | 158 | 0.0 | 1.6 | 0.00 | 0.00 | 0.00 | 70 | 1020.9 |
| 20260509070211 | 22 | 158 | 0.0 | 0.0 | 0.00 | 0.00 | 0.00 | 70 | 1021.1 |
| 20260509065707 | 22 | 158 | 0.0 | 0.0 | 0.00 | 0.00 | 0.00 | 70 | 1020.9 |
| 20260509065203 | 22 | 158 | 0.0 | 1.6 | 0.00 | 0.00 | 0.00 | 69 | 1020.9 |
| 20260509064700 | 22 | 158 | 0.0 | 0.0 | 0.00 | 0.00 | 0.00 | 70 | 1020.9 |
| 20260509064158 | 22 | 158 | 0.0 | 0.0 | 0.00 | 0.00 | 0.00 | 69 | 1021.2 |
| 20260509063655 | 22 | 158 | 0.0 | 1.6 | 0.00 | 0.00 | 0.00 | 69 | 1021.2 |
| 20260509063152 | 22 | 158 | 0.0 | 0.0 | 0.00 | 0.00 | 0.00 | 70 | 1021.1 |
| 20260509062649 | 22 | 158 | 0.0 | 0.0 | 0.00 | 0.00 | 0.00 | 70 | 1021.0 |
| 20260509062146 | 22 | 158 | 0.0 | 1.6 | 0.00 | 0.00 | 0.00 | 71 | 1021.2 |
| 20260509061643 | 22 | 158 | 0.0 | 0.0 | 0.00 | 0.00 | 0.00 | 71 | 1021.1 |
| 20260509061140 | 22 | 158 | 0.0 | 0.0 | 0.00 | 0.00 | 0.00 | 71 | 1021.2 |
| 20260509060638 | 22 | 158 | 0.0 | 0.0 | 0.00 | 0.00 | 0.00 | 71 | 1021.0 |
| 20260509060134 | 22 | 158 | 0.0 | 0.0 | 0.00 | 0.00 | 0.00 | 71 | 1021.3 |
| 20260509055630 | 22 | 158 | 1.6 | 1.6 | 0.00 | 0.00 | 0.00 | 71 | 1021.2 |
| 20260509055125 | 22 | 158 | 0.0 | 0.0 | 0.00 | 0.00 | 0.00 | 71 | 1021.1 |
| 20260509054622 | 22 | 158 | 0.0 | 3.2 | 0.00 | 0.00 | 0.00 | 71 | 1021.2 |
| 20260509054120 | 22 | 158 | 0.0 | 3.2 | 0.00 | 0.00 | 0.00 | 71 | 1021.2 |
| 20260509053618 | 22 | 158 | 0.0 | 0.0 | 0.00 | 0.00 | 0.00 | 72 | 1021.1 |
| 20260509053115 | 22 | 158 | 0.0 | 0.0 | 0.00 | 0.00 | 0.00 | 71 | 1021.2 |
| 20260509052613 | 22 | 159 | 1.6 | 1.6 | 0.00 | 0.00 | 0.00 | 71 | 1021.3 |
| 20260509052111 | 22 | 159 | 0.0 | 1.6 | 0.00 | 0.00 | 0.00 | 72 | 1021.2 |
| 20260509051608 | 22 | 159 | 0.0 | 0.0 | 0.00 | 0.00 | 0.00 | 72 | 1021.2 |
| 20260509051105 | 22 | 159 | 0.0 | 0.0 | 0.00 | 0.00 | 0.00 | 73 | 1021.2 |
| 20260509050602 | 22 | 159 | 0.0 | 0.0 | 0.00 | 0.00 | 0.00 | 73 | 1021.4 |
| 20260509050058 | 22 | 159 | 0.0 | 1.6 | 0.00 | 0.00 | 0.00 | 73 | 1021.4 |
| 20260509045556 | 22 | 159 | 0.0 | 0.0 | 0.00 | 0.00 | 0.00 | 73 | 1021.5 |
| 20260509045047 | 22 | 159 | 0.0 | 0.0 | 0.00 | 0.00 | 0.00 | 73 | 1021.3 |
| 20260509044544 | 22 | 159 | 0.0 | 0.0 | 0.00 | 0.00 | 0.00 | 73 | 1021.5 |
| 20260509044042 | 22 | 159 | 0.0 | 0.0 | 0.00 | 0.00 | 0.00 | 73 | 1021.4 |
| 20260509043538 | 22 | 159 | 0.0 | 0.0 | 0.00 | 0.00 | 0.00 | 73 | 1021.4 |
| 20260509043034 | 22 | 159 | 0.0 | 0.0 | 0.00 | 0.00 | 0.00 | 73 | 1021.4 |
| 20260509042530 | 22 | 159 | 0.0 | 0.0 | 0.00 | 0.00 | 0.00 | 73 | 1021.4 |
| 20260509042026 | 22 | 159 | 0.0 | 0.0 | 0.00 | 0.00 | 0.00 | 73 | 1021.5 |
| 20260509041523 | 22 | 159 | 0.0 | 0.0 | 0.00 | 0.00 | 0.00 | 73 | 1021.3 |
| 20260509041021 | 21 | 159 | 0.0 | 0.0 | 0.00 | 0.00 | 0.00 | 74 | 1021.6 |
| 20260509040519 | 21 | 159 | 0.0 | 0.0 | 0.00 | 0.00 | 0.00 | 74 | 1021.4 |
| 20260509040016 | 21 | 159 | 0.0 | 0.0 | 0.00 | 0.00 | 0.00 | 74 | 1021.6 |
| 20260509035513 | 21 | 159 | 0.0 | 0.0 | 0.00 | 0.00 | 0.00 | 74 | 1021.5 |
| 20260509035009 | 21 | 159 | 0.0 | 0.0 | 0.00 | 0.00 | 0.00 | 75 | 1021.4 |
| 20260509034508 | 21 | 159 | 0.0 | 0.0 | 0.00 | 0.00 | 0.00 | 75 | 1021.3 |
| 20260509034004 | 21 | 159 | 0.0 | 0.0 | 0.00 | 0.00 | 0.00 | 75 | 1021.2 |
| 20260509033500 | 21 | 159 | 0.0 | 0.0 | 0.00 | 0.00 | 0.00 | 76 | 1021.5 |
| 20260509032957 | 21 | 160 | 0.0 | 0.0 | 0.00 | 0.00 | 0.00 | 75 | 1021.2 |
| 20260509032454 | 21 | 160 | 0.0 | 0.0 | 0.00 | 0.00 | 0.00 | 75 | 1021.3 |
| 20260509031952 | 21 | 160 | 0.0 | 0.0 | 0.00 | 0.00 | 0.00 | 75 | 1021.5 |
| 20260509031449 | 21 | 160 | 0.0 | 0.0 | 0.00 | 0.00 | 0.00 | 75 | 1021.3 |
| 20260509030946 | 21 | 160 | 0.0 | 0.0 | 0.00 | 0.00 | 0.00 | 75 | 1021.3 |
| 20260509030444 | 21 | 160 | 0.0 | 0.0 | 0.00 | 0.00 | 0.00 | 75 | 1021.3 |
| 20260509025941 | 21 | 160 | 0.0 | 0.0 | 0.00 | 0.00 | 0.00 | 74 | 1021.3 |
| 20260509025437 | 22 | 160 | 0.0 | 0.0 | 0.00 | 0.00 | 0.00 | 73 | 1021.5 |
| 20260509024932 | 22 | 160 | 0.0 | 0.0 | 0.00 | 0.00 | 0.00 | 73 | 1021.3 |
| 20260509024428 | 22 | 160 | 0.0 | 0.0 | 0.00 | 0.00 | 0.00 | 72 | 1021.4 |
| 20260509023925 | 22 | 160 | 0.0 | 1.6 | 0.00 | 0.00 | 0.00 | 72 | 1021.4 |
| 20260509023423 | 22 | 160 | 0.0 | 1.6 | 0.00 | 0.00 | 0.00 | 72 | 1021.4 |
| 20260509022919 | 22 | 160 | 0.0 | 0.0 | 0.00 | 0.00 | 0.00 | 72 | 1021.5 |
| 20260509022416 | 22 | 160 | 0.0 | 0.0 | 0.00 | 0.00 | 0.00 | 71 | 1021.5 |
| 20260509021914 | 22 | 160 | 0.0 | 0.0 | 0.00 | 0.00 | 0.00 | 71 | 1021.5 |
| 20260509021410 | 22 | 160 | 0.0 | 3.2 | 0.00 | 0.00 | 0.00 | 71 | 1021.4 |
| 20260509020908 | 22 | 160 | 1.6 | 8.0 | 0.00 | 0.00 | 0.00 | 71 | 1021.6 |
| 20260509020406 | 22 | 160 | 0.0 | 0.0 | 0.00 | 0.00 | 0.00 | 72 | 1021.5 |
| 20260509015903 | 22 | 160 | 0.0 | 0.0 | 0.00 | 0.00 | 0.00 | 72 | 1021.4 |
| 20260509015401 | 22 | 160 | 0.0 | 0.0 | 0.00 | 0.00 | 0.00 | 73 | 1021.5 |
| 20260509014857 | 22 | 160 | 0.0 | 0.0 | 0.00 | 0.00 | 0.00 | 73 | 1021.4 |
| 20260509014354 | 22 | 160 | 0.0 | 0.0 | 0.00 | 0.00 | 0.00 | 73 | 1021.3 |
| 20260509013851 | 22 | 160 | 0.0 | 0.0 | 0.00 | 0.00 | 0.00 | 73 | 1021.5 |
| 20260509013347 | 22 | 160 | 0.0 | 0.0 | 0.00 | 0.00 | 0.00 | 73 | 1021.4 |
| 20260509012843 | 22 | 160 | 0.0 | 1.6 | 0.00 | 0.00 | 0.00 | 73 | 1021.4 |
| 20260509012340 | 22 | 160 | 0.0 | 0.0 | 0.00 | 0.00 | 0.00 | 74 | 1021.3 |
| 20260509011838 | 22 | 160 | 0.0 | 0.0 | 0.00 | 0.00 | 0.00 | 74 | 1021.3 |
| 20260509011335 | 22 | 160 | 0.0 | 0.0 | 0.00 | 0.00 | 0.00 | 74 | 1021.5 |
| 20260509010833 | 22 | 161 | 0.0 | 0.0 | 0.00 | 0.00 | 0.00 | 73 | 1021.5 |
| 20260509010330 | 22 | 169 | 0.0 | 0.0 | 0.00 | 0.00 | 0.00 | 73 | 1021.6 |
| 20260509005821 | 22 | 182 | 0.0 | 0.0 | 0.00 | 0.00 | 0.00 | 72 | 1021.4 |
| 20260509005320 | 23 | 191 | 0.0 | 0.0 | 0.00 | 0.00 | 0.00 | 71 | 1021.6 |
| 20260509004819 | 23 | 199 | 0.0 | 0.0 | 0.00 | 0.00 | 0.00 | 71 | 1021.8 |
| 20260509004315 | 23 | 210 | 0.0 | 0.0 | 0.00 | 0.00 | 0.00 | 71 | 1021.5 |
| 20260509003814 | 23 | 215 | 0.0 | 1.6 | 0.00 | 0.00 | 0.00 | 70 | 1021.4 |
| 20260509003311 | 23 | 219 | 0.0 | 3.2 | 0.00 | 0.00 | 0.00 | 70 | 1021.5 |
| 20260509002803 | 23 | 226 | 0.0 | 0.0 | 0.00 | 0.00 | 0.00 | 69 | 1021.4 |
| 20260509002300 | 23 | 226 | 0.0 | 1.6 | 0.00 | 0.00 | 0.00 | 69 | 1021.4 |
| 20260509001758 | 23 | 228 | 0.0 | 0.0 | 0.00 | 0.00 | 0.00 | 68 | 1021.4 |
| 20260509001248 | 23 | 232 | 0.0 | 0.0 | 0.00 | 0.00 | 0.00 | 68 | 1021.3 |
| 20260509000746 | 23 | 233 | 0.0 | 0.0 | 0.00 | 0.00 | 0.00 | 67 | 1021.4 |